Ellsworth AFB, SD

3:39 AM MST on December 05, 2016 (GMT -0700)
Ellsworth Air Force Base

Weather History for KRCA - July, 2013

Change the Weather History Date:

Wednesday, July 24, 2013

  Actual Average Record
Temperature  
Mean Temperature 74 °F -  
Max Temperature 87 °F 85 °F 107 °F (2003)
Min Temperature 60 °F 60 °F 51 °F (1996)
Cooling Degree Days 8    
Growing Degree Days 24 (Base 50)    
Moisture  
Dew Point 55 °F    
Average Humidity 55    
Maximum Humidity 90    
Minimum Humidity 24    
Precipitation  
Precipitation 0.00 in - - ()
Sea Level Pressure  
Sea Level Pressure 30.03 in    
Wind  
Wind Speed 8 mph (NE)    
Max Wind Speed 16 mph    
Max Gust Speed -    
Visibility 10 miles    
Events      
Averages and records for this station are not official NWS values.
T = Trace of Precipitation, MM = Missing Value Source: NWS Daily Summary

Daily Weather History Graph

Daily Weather History Graph

Search for Another Location

Airport or City:

Trip Planner

Search our weather history database for the weather conditions in past years. The results will help you decide how hot, cold, wet, or windy it might be!

Date:

Astronomy

Jul. 24, 2013 Rise Set
Actual Time 5:31 AM MDT 8:25 PM MDT
Civil Twilight 4:57 AM MDT 8:59 PM MDT
Nautical Twilight 4:14 AM MDT 9:42 PM MDT
Astronomical Twilight 3:23 AM MDT 10:32 PM MDT
Moon 9:23 PM MDT (7/24) 8:01 AM MDT (7/24)
Length of Visible Light 16h 01m
Length of Day
14h 53m
Waning Gibbous, 94% of the Moon is Illuminated
Jul 24
Waning Gibbous
Jul 29
Last Quarter
Aug 6
New
Aug 14
First Quarter
Aug 20
Full

Hourly Weather History & Observations

Time (MDT) Temp. Heat Index Dew Point Humidity Pressure Visibility Wind Dir Wind Speed Gust Speed Precip Events Conditions
12:58 AM 64.2 °F - 59.7 °F 85% 30.04 in 10.0 mi SE 9.2 mph - N/A   Clear
1:58 AM 64.8 °F - 59.5 °F 83% 30.04 in 10.0 mi SW 5.8 mph - N/A   Clear
2:58 AM 60.8 °F - 57.9 °F 90% 30.04 in 10.0 mi WNW 2.3 mph - N/A   Clear
3:58 AM 60.8 °F - 55.4 °F 82% 30.04 in 10.0 mi NNW 5.8 mph - N/A   Clear
4:58 AM 64.4 °F - 55.4 °F 73% 30.06 in 10.0 mi NNE 10.4 mph - N/A   Clear
5:58 AM 62.6 °F - 57.2 °F 82% 30.08 in 10.0 mi North 12.7 mph - N/A   Clear
6:58 AM 64.4 °F - 59.0 °F 83% 30.09 in 10.0 mi North 11.5 mph - N/A   Clear
7:58 AM 68.0 °F - 59.0 °F 73% 30.08 in 10.0 mi North 16.1 mph - N/A   Clear
8:58 AM 71.6 °F - 59.0 °F 64% 30.10 in 10.0 mi North 11.5 mph - N/A   Clear
9:58 AM 75.2 °F - 59.0 °F 57% 30.10 in 10.0 mi North 10.4 mph - N/A   Clear
10:58 AM 78.8 °F - 57.2 °F 47% 30.09 in 10.0 mi NE 9.2 mph - N/A   Clear
11:58 AM 80.6 °F 80.5 °F 55.4 °F 42% 30.08 in 10.0 mi NNE 8.1 mph - N/A   Scattered Clouds
12:58 PM 84.2 °F 82.8 °F 53.6 °F 35% 30.06 in 9.0 mi ENE 3.5 mph - N/A   Partly Cloudy
1:58 PM 84.4 °F 82.8 °F 53.1 °F 34% 30.04 in 10.0 mi ENE 5.8 mph - N/A   Scattered Clouds
2:58 PM 86.0 °F - 51.8 °F 31% 30.01 in 10.0 mi Variable 6.9 mph - N/A   Clear
3:58 PM 87.8 °F - 50.0 °F 27% 29.99 in 10.0 mi East 9.2 mph - N/A   Clear
4:58 PM 87.8 °F - 46.4 °F 24% 29.98 in 10.0 mi Variable 3.5 mph - N/A   Clear
5:58 PM 86.0 °F - 48.2 °F 27% 29.97 in 10.0 mi ENE 9.2 mph - N/A   Clear
6:58 PM 84.2 °F - 48.2 °F 29% 29.96 in 10.0 mi East 9.2 mph - N/A   Clear
7:58 PM 80.6 °F - 50.0 °F 34% 29.96 in 10.0 mi ESE 8.1 mph - N/A   Partly Cloudy
8:58 PM 75.2 °F - 51.8 °F 44% 29.98 in 10.0 mi ESE 10.4 mph - N/A   Clear
9:58 PM 71.6 °F - 53.6 °F 53% 29.98 in 10.0 mi ESE 12.7 mph - N/A   Clear
10:58 PM 69.8 °F - 55.4 °F 60% 29.99 in 10.0 mi SSE 9.2 mph - N/A   Mostly Cloudy
11:58 PM 69.8 °F - 55.4 °F 60% 29.99 in 10.0 mi SSW 9.2 mph - N/A   Overcast